Time,TemperatureF,DewpointF,PressureIn,WindDirection,WindDirectionDegrees,WindSpeedMPH,WindSpeedGustMPH,Humidity,HourlyPrecipIn,Conditions,Clouds,dailyrainin,SoftwareType,DateUTC
2013-05-27 00:00:00,41.5,35.2,30.19,SSE,158,0.8,2.3,78,0.00,CLR,,0.00,WeatherDisplay:10.37,2013-05-27 04:00:00,
2013-05-27 00:01:00,41.5,35.5,30.19,SSE,158,0.3,1.2,79,0.00,CLR,,0.00,WeatherDisplay:10.37,2013-05-27 04:01:00,
2013-05-27 00:06:00,41.4,35.4,30.19,WSW,248,1.8,1.8,79,0.00,CLR,,0.00,WeatherDisplay:10.37,2013-05-27 04:06:00,
2013-05-27 00:11:00,41.2,35.8,30.19,West,270,1.9,2.7,81,0.00,CLR,,0.00,WeatherDisplay:10.37,2013-05-27 04:11:00,
2013-05-27 00:16:00,41.0,35.0,30.19,SW,225,3.2,3.7,79,0.00,CLR,,0.00,WeatherDisplay:10.37,2013-05-27 04:16:00,
2013-05-27 00:21:00,41.0,35.3,30.19,West,270,2.3,3.2,80,0.00,CLR,,0.00,WeatherDisplay:10.37,2013-05-27 04:21:00,
2013-05-27 00:26:00,40.8,35.4,30.19,West,270,3.1,3.5,81,0.00,CLR,,0.00,WeatherDisplay:10.37,2013-05-27 04:26:00,
2013-05-27 00:31:00,41.0,35.6,30.19,WNW,292,3.8,4.6,81,0.00,CLR,,0.00,WeatherDisplay:10.37,2013-05-27 04:31:00,
2013-05-27 00:36:00,41.0,35.6,30.19,WNW,292,2.5,3.5,81,0.00,CLR,,0.00,WeatherDisplay:10.37,2013-05-27 04:36:00,
2013-05-27 00:41:00,41.0,35.0,30.19,West,270,2.7,3.5,79,0.00,CLR,,0.00,WeatherDisplay:10.37,2013-05-27 04:41:00,
2013-05-27 00:46:00,41.0,35.3,30.19,West,270,2.4,2.7,80,0.00,CLR,,0.00,WeatherDisplay:10.37,2013-05-27 04:46:00,
2013-05-27 00:51:00,40.8,34.8,30.20,WSW,248,2.7,3.2,79,0.00,CLR,,0.00,WeatherDisplay:10.37,2013-05-27 04:51:00,
2013-05-27 00:56:00,40.6,35.2,30.20,WSW,248,2.5,2.5,81,0.00,CLR,,0.00,WeatherDisplay:10.37,2013-05-27 04:56:00,
2013-05-27 01:01:00,40.6,34.6,30.20,WSW,248,2.9,4.6,79,0.00,CLR,,0.00,WeatherDisplay:10.37,2013-05-27 05:01:00,
2013-05-27 01:06:00,40.6,34.9,30.20,West,270,2.6,3.5,80,0.00,CLR,,0.00,WeatherDisplay:10.37,2013-05-27 05:06:00,
2013-05-27 01:11:00,40.6,34.9,30.20,West,270,2.8,3.5,80,0.00,CLR,,0.00,WeatherDisplay:10.37,2013-05-27 05:11:00,
2013-05-27 01:16:00,40.3,35.2,30.20,West,270,2.4,3.5,82,0.00,CLR,,0.00,WeatherDisplay:10.37,2013-05-27 05:16:00,
2013-05-27 01:21:00,40.3,34.6,30.20,WNW,292,2.7,4.6,80,0.00,CLR,,0.00,WeatherDisplay:10.37,2013-05-27 05:21:00,
2013-05-27 01:26:00,40.5,34.8,30.20,West,270,2.7,3.5,80,0.00,CLR,,0.00,WeatherDisplay:10.37,2013-05-27 05:26:00,
2013-05-27 01:31:00,40.5,34.5,30.20,West,270,3.1,3.5,79,0.00,CLR,,0.00,WeatherDisplay:10.37,2013-05-27 05:31:00,
2013-05-27 01:36:00,40.1,34.7,30.20,West,270,2.5,3.5,81,0.00,CLR,,0.00,WeatherDisplay:10.37,2013-05-27 05:36:00,
2013-05-27 01:41:00,40.1,35.0,30.20,SW,225,2.2,3.5,82,0.00,CLR,,0.00,WeatherDisplay:10.37,2013-05-27 05:41:00,
2013-05-27 01:46:00,40.1,34.7,30.20,WSW,248,2.3,3.5,81,0.00,CLR,,0.00,WeatherDisplay:10.37,2013-05-27 05:46:00,
2013-05-27 01:51:00,40.1,35.0,30.20,West,270,2.9,3.5,82,0.00,CLR,,0.00,WeatherDisplay:10.37,2013-05-27 05:51:00,
2013-05-27 01:56:00,39.9,35.2,30.20,West,270,3.1,3.5,83,0.00,CLR,,0.00,WeatherDisplay:10.37,2013-05-27 05:56:00,
2013-05-27 02:01:00,39.7,35.0,30.20,West,270,3.0,3.2,83,0.00,CLR,,0.00,WeatherDisplay:10.37,2013-05-27 06:01:00,
2013-05-27 02:06:00,39.4,35.3,30.20,West,270,2.7,2.7,85,0.00,CLR,,0.00,WeatherDisplay:10.37,2013-05-27 06:06:00,
2013-05-27 02:12:00,39.4,35.3,30.20,West,270,2.3,3.5,85,0.00,CLR,,0.00,WeatherDisplay:10.37,2013-05-27 06:12:00,
2013-05-27 02:17:00,39.0,34.9,30.20,West,270,3.9,4.6,85,0.00,CLR,,0.00,WeatherDisplay:10.37,2013-05-27 06:17:00,
2013-05-27 02:22:00,39.2,34.8,30.20,SW,225,3.0,3.5,84,0.00,CLR,,0.00,WeatherDisplay:10.37,2013-05-27 06:22:00,
2013-05-27 02:27:00,39.2,34.8,30.20,NNW,338,1.8,3.5,84,0.00,CLR,,0.00,WeatherDisplay:10.37,2013-05-27 06:27:00,
2013-05-27 02:32:00,39.2,35.1,30.20,West,270,3.2,3.5,85,0.00,CLR,,0.00,WeatherDisplay:10.37,2013-05-27 06:32:00,
2013-05-27 02:37:00,39.2,34.5,30.20,WNW,292,2.7,3.5,83,0.00,CLR,,0.00,WeatherDisplay:10.37,2013-05-27 06:37:00,
2013-05-27 02:42:00,39.2,34.8,30.20,West,270,3.7,4.6,84,0.00,CLR,,0.00,WeatherDisplay:10.37,2013-05-27 06:42:00,
2013-05-27 02:47:00,39.4,34.7,30.20,WNW,292,3.2,3.5,83,0.00,CLR,,0.00,WeatherDisplay:10.37,2013-05-27 06:47:00,
2013-05-27 02:52:00,39.6,34.9,30.21,West,270,2.3,2.3,83,0.00,CLR,,0.00,WeatherDisplay:10.37,2013-05-27 06:52:00,
2013-05-27 02:57:00,39.4,34.4,30.21,SSW,202,3.2,3.5,82,0.00,CLR,,0.00,WeatherDisplay:10.37,2013-05-27 06:57:00,
2013-05-27 03:02:00,39.6,33.9,30.21,West,270,2.8,4.6,80,0.00,CLR,,0.00,WeatherDisplay:10.37,2013-05-27 07:02:00,
2013-05-27 03:07:00,39.9,33.9,30.21,West,270,2.5,2.7,79,0.00,CLR,,0.00,WeatherDisplay:10.37,2013-05-27 07:07:00,
2013-05-27 03:12:00,40.3,34.0,30.21,NW,315,2.9,4.6,78,0.00,CLR,,0.00,WeatherDisplay:10.37,2013-05-27 07:12:00,
2013-05-27 03:17:00,40.3,34.3,30.21,NW,315,2.9,4.2,79,0.00,CLR,,0.00,WeatherDisplay:10.37,2013-05-27 07:17:00,
2013-05-27 03:22:00,40.3,33.7,30.21,SSW,202,2.0,3.5,77,0.00,CLR,,0.00,WeatherDisplay:10.37,2013-05-27 07:22:00,
2013-05-27 03:27:00,40.3,33.7,30.21,SE,135,0.1,2.3,77,0.00,CLR,,0.00,WeatherDisplay:10.37,2013-05-27 07:27:00,
2013-05-27 03:32:00,40.3,33.7,30.21,SSW,202,2.1,3.5,77,0.00,CLR,,0.00,WeatherDisplay:10.37,2013-05-27 07:32:00,
2013-05-27 03:37:00,40.1,33.5,30.21,West,270,2.5,3.5,77,0.00,CLR,,0.00,WeatherDisplay:10.37,2013-05-27 07:37:00,
2013-05-27 03:42:00,39.9,33.6,30.21,West,270,1.5,2.3,78,0.00,CLR,,0.00,WeatherDisplay:10.37,2013-05-27 07:42:00,
2013-05-27 03:47:00,40.1,33.5,30.21,West,270,1.7,2.3,77,0.00,CLR,,0.00,WeatherDisplay:10.37,2013-05-27 07:47:00,
2013-05-27 03:52:00,39.9,33.3,30.20,SSW,202,2.2,3.7,77,0.00,CLR,,0.00,WeatherDisplay:10.37,2013-05-27 07:52:00,
2013-05-27 03:57:00,39.9,33.3,30.20,NNE,22,1.3,2.3,77,0.00,CLR,,0.00,WeatherDisplay:10.37,2013-05-27 07:57:00,
2013-05-27 04:02:00,39.7,33.7,30.21,WNW,292,3.2,3.5,79,0.00,CLR,,0.00,WeatherDisplay:10.37,2013-05-27 08:02:00,
2013-05-27 04:07:00,39.7,33.7,30.21,West,270,3.9,5.8,79,0.00,CLR,,0.00,WeatherDisplay:10.37,2013-05-27 08:07:00,
2013-05-27 04:12:00,39.9,33.3,30.21,West,270,4.0,4.7,77,0.00,CLR,,0.00,WeatherDisplay:10.37,2013-05-27 08:12:00,
2013-05-27 04:17:00,39.9,33.6,30.21,West,270,3.6,4.6,78,0.00,CLR,,0.00,WeatherDisplay:10.37,2013-05-27 08:17:00,
2013-05-27 04:22:00,39.9,33.6,30.21,WNW,292,4.2,5.8,78,0.00,CLR,,0.00,WeatherDisplay:10.37,2013-05-27 08:22:00,
2013-05-27 04:27:00,39.9,33.9,30.20,West,270,2.8,2.8,79,0.00,CLR,,0.00,WeatherDisplay:10.37,2013-05-27 08:27:00,
2013-05-27 04:32:00,39.7,33.7,30.20,West,270,3.0,4.7,79,0.00,CLR,,0.00,WeatherDisplay:10.37,2013-05-27 08:32:00,
2013-05-27 04:37:00,39.4,33.4,30.21,SSW,202,2.6,4.6,79,0.00,CLR,,0.00,WeatherDisplay:10.37,2013-05-27 08:37:00,
2013-05-27 04:42:00,39.0,33.7,30.21,NNW,338,2.5,3.5,81,0.00,CLR,,0.00,WeatherDisplay:10.37,2013-05-27 08:42:00,
2013-05-27 04:47:00,38.8,33.5,30.21,West,270,3.4,4.2,81,0.00,CLR,,0.00,WeatherDisplay:10.37,2013-05-27 08:47:00,
2013-05-27 04:52:00,38.8,33.5,30.22,West,270,3.5,5.3,81,0.00,CLR,,0.00,WeatherDisplay:10.37,2013-05-27 08:52:00,
2013-05-27 04:57:00,38.8,33.5,30.22,SSW,202,2.9,3.5,81,0.00,CLR,,0.00,WeatherDisplay:10.37,2013-05-27 08:57:00,
2013-05-27 05:02:00,38.8,33.8,30.22,SW,225,3.0,3.7,82,0.00,CLR,,0.00,WeatherDisplay:10.37,2013-05-27 09:02:00,
2013-05-27 05:07:00,38.8,33.5,30.22,West,270,3.3,4.6,81,0.00,CLR,,0.00,WeatherDisplay:10.37,2013-05-27 09:07:00,
2013-05-27 05:12:00,39.2,33.5,30.23,SW,225,6.0,6.9,80,0.00,CLR,,0.00,WeatherDisplay:10.37,2013-05-27 09:12:00,
2013-05-27 05:17:00,39.2,33.5,30.23,WNW,292,3.2,4.6,80,0.00,CLR,,0.00,WeatherDisplay:10.37,2013-05-27 09:17:00,
2013-05-27 05:22:00,39.2,33.5,30.23,WNW,292,3.0,3.5,80,0.00,CLR,,0.00,WeatherDisplay:10.37,2013-05-27 09:22:00,
2013-05-27 05:27:00,39.0,33.7,30.22,WNW,292,3.7,4.6,81,0.00,CLR,,0.00,WeatherDisplay:10.37,2013-05-27 09:27:00,
2013-05-27 05:32:00,39.0,33.4,30.22,WNW,292,5.0,6.9,80,0.00,CLR,,0.00,WeatherDisplay:10.37,2013-05-27 09:32:00,
2013-05-27 05:37:00,39.2,33.2,30.23,South,180,4.5,4.6,79,0.00,CLR,,0.00,WeatherDisplay:10.37,2013-05-27 09:37:00,
2013-05-27 05:42:00,39.4,33.4,30.23,ESE,112,1.8,7.3,79,0.00,CLR,,0.00,WeatherDisplay:10.37,2013-05-27 09:42:00,
2013-05-27 05:47:00,39.4,33.4,30.23,SW,225,2.0,3.5,79,0.00,CLR,,0.00,WeatherDisplay:10.37,2013-05-27 09:47:00,
2013-05-27 05:52:00,39.4,33.1,30.23,SSW,202,3.2,4.6,78,0.00,CLR,,0.00,WeatherDisplay:10.37,2013-05-27 09:52:00,
2013-05-27 05:57:00,39.6,33.3,30.23,South,180,3.9,4.6,78,0.00,CLR,,0.00,WeatherDisplay:10.37,2013-05-27 09:57:00,
2013-05-27 06:02:00,39.7,33.4,30.23,ENE,68,1.6,2.3,78,0.00,CLR,,0.00,WeatherDisplay:10.37,2013-05-27 10:02:00,
2013-05-27 06:07:00,40.1,33.5,30.23,ESE,112,1.1,2.3,77,0.00,CLR,,0.00,WeatherDisplay:10.37,2013-05-27 10:07:00,
2013-05-27 06:12:00,40.3,33.7,30.24,SSW,202,3.0,4.6,77,0.00,CLR,,0.00,WeatherDisplay:10.37,2013-05-27 10:12:00,
2013-05-27 06:17:00,40.3,33.7,30.24,SSE,158,3.2,3.5,77,0.00,CLR,,0.00,WeatherDisplay:10.37,2013-05-27 10:17:00,
2013-05-27 06:22:00,41.0,34.0,30.24,SSE,158,3.0,3.5,76,0.00,CLR,,0.00,WeatherDisplay:10.37,2013-05-27 10:22:00,
2013-05-27 06:27:00,41.7,34.0,30.24,West,270,3.1,4.6,74,0.00,CLR,,0.00,WeatherDisplay:10.37,2013-05-27 10:27:00,
2013-05-27 06:32:00,42.4,34.4,30.24,SSE,158,2.5,2.7,73,0.00,CLR,,0.00,WeatherDisplay:10.37,2013-05-27 10:32:00,
2013-05-27 06:37:00,43.7,34.9,30.24,SSE,158,3.1,3.5,71,0.00,CLR,,0.00,WeatherDisplay:10.37,2013-05-27 10:37:00,
2013-05-27 06:42:00,44.2,35.4,30.24,SSW,202,3.2,3.5,71,0.00,CLR,,0.00,WeatherDisplay:10.37,2013-05-27 10:42:00,
2013-05-27 06:47:00,45.3,34.6,30.24,South,180,3.3,3.5,66,0.00,CLR,,0.00,WeatherDisplay:10.37,2013-05-27 10:47:00,
2013-05-27 06:52:00,45.5,35.5,30.23,SSE,158,3.5,4.2,68,0.00,CLR,,0.00,WeatherDisplay:10.37,2013-05-27 10:52:00,
2013-05-27 06:57:00,46.4,36.4,30.23,South,180,2.2,3.5,68,0.00,CLR,,0.00,WeatherDisplay:10.37,2013-05-27 10:57:00,
2013-05-27 07:02:00,46.0,35.7,30.23,SE,135,3.3,4.6,67,0.00,CLR,,0.00,WeatherDisplay:10.37,2013-05-27 11:02:00,
2013-05-27 07:07:00,47.7,35.7,30.23,SE,135,3.7,5.8,63,0.00,CLR,,0.00,WeatherDisplay:10.37,2013-05-27 11:07:00,
2013-05-27 07:12:00,48.9,35.6,30.23,West,270,2.6,3.5,60,0.00,CLR,,0.00,WeatherDisplay:10.37,2013-05-27 11:12:00,
2013-05-27 07:17:00,49.6,35.4,30.23,SW,225,2.8,3.5,58,0.00,CLR,,0.00,WeatherDisplay:10.37,2013-05-27 11:17:00,
2013-05-27 07:22:00,49.8,35.2,30.23,ESE,112,3.2,4.6,57,0.00,CLR,,0.00,WeatherDisplay:10.37,2013-05-27 11:22:00,
2013-05-27 07:27:00,50.5,35.8,30.23,NNW,338,2.3,3.5,57,0.00,CLR,,0.00,WeatherDisplay:10.37,2013-05-27 11:27:00,
2013-05-27 07:32:00,52.2,35.6,30.23,SSE,158,3.2,3.7,53,0.00,CLR,,0.00,WeatherDisplay:10.37,2013-05-27 11:32:00,
2013-05-27 07:37:00,53.1,36.4,30.23,ESE,112,2.3,3.7,53,0.00,CLR,,0.00,WeatherDisplay:10.37,2013-05-27 11:37:00,
2013-05-27 07:42:00,53.8,36.1,30.23,NNW,338,2.5,3.5,51,0.00,CLR,,0.00,WeatherDisplay:10.37,2013-05-27 11:42:00,
2013-05-27 07:47:00,54.5,36.7,30.23,ESE,112,2.8,3.5,51,0.00,CLR,,0.00,WeatherDisplay:10.37,2013-05-27 11:47:00,
2013-05-27 07:52:00,54.5,36.7,30.23,SSE,158,1.6,2.3,51,0.00,CLR,,0.00,WeatherDisplay:10.37,2013-05-27 11:52:00,
2013-05-27 07:58:00,56.7,36.7,30.23,SSE,158,3.7,5.8,47,0.00,CLR,,0.00,WeatherDisplay:10.37,2013-05-27 11:58:00,
2013-05-27 08:03:00,58.1,36.9,30.24,South,180,1.9,3.5,45,0.00,CLR,,0.00,WeatherDisplay:10.37,2013-05-27 12:03:00,
2013-05-27 08:08:00,58.3,36.5,30.24,ENE,68,3.7,4.6,44,0.00,CLR,,0.00,WeatherDisplay:10.37,2013-05-27 12:08:00,
2013-05-27 08:13:00,58.1,36.9,30.24,NW,315,2.7,4.6,45,0.00,CLR,,0.00,WeatherDisplay:10.37,2013-05-27 12:13:00,
2013-05-27 08:18:00,58.8,36.9,30.24,SE,135,3.7,4.6,44,0.00,CLR,,0.00,WeatherDisplay:10.37,2013-05-27 12:18:00,
2013-05-27 08:23:00,56.8,36.8,30.24,SE,135,2.2,3.5,47,0.00,CLR,,0.00,WeatherDisplay:10.37,2013-05-27 12:23:00,
2013-05-27 08:28:00,58.6,39.0,30.24,SSW,202,3.4,3.5,48,0.00,CLR,,0.00,WeatherDisplay:10.37,2013-05-27 12:28:00,
2013-05-27 08:33:00,59.2,36.7,30.24,NNW,338,3.5,5.3,43,0.00,CLR,,0.00,WeatherDisplay:10.37,2013-05-27 12:33:00,
2013-05-27 08:38:00,58.6,36.7,30.24,SW,225,2.7,3.5,44,0.00,CLR,,0.00,WeatherDisplay:10.37,2013-05-27 12:38:00,
2013-05-27 08:43:00,60.4,37.2,30.24,East,90,2.5,4.6,42,0.00,CLR,,0.00,WeatherDisplay:10.37,2013-05-27 12:43:00,
2013-05-27 08:48:00,61.5,38.2,30.23,WSW,248,2.6,3.5,42,0.00,CLR,,0.00,WeatherDisplay:10.37,2013-05-27 12:48:00,
2013-05-27 08:53:00,61.3,37.4,30.23,North,360,3.8,4.6,41,0.00,CLR,,0.00,WeatherDisplay:10.37,2013-05-27 12:53:00,
2013-05-27 08:58:00,61.3,37.4,30.23,South,180,4.4,5.8,41,0.00,CLR,,0.00,WeatherDisplay:10.37,2013-05-27 12:58:00,
2013-05-27 09:03:00,61.5,37.6,30.23,ESE,112,3.2,3.5,41,0.00,CLR,,0.00,WeatherDisplay:10.37,2013-05-27 13:03:00,
2013-05-27 09:08:00,64.9,38.7,30.23,NNW,338,2.3,2.3,38,0.00,CLR,,0.00,WeatherDisplay:10.37,2013-05-27 13:08:00,
2013-05-27 09:13:00,63.5,38.1,30.22,ESE,112,2.6,3.5,39,0.00,CLR,,0.00,WeatherDisplay:10.37,2013-05-27 13:13:00,
2013-05-27 09:18:00,64.6,37.7,30.22,NNE,22,2.4,3.5,37,0.00,CLR,,0.00,WeatherDisplay:10.37,2013-05-27 13:18:00,
2013-05-27 09:23:00,66.4,38.6,30.22,ENE,68,3.1,3.5,36,0.00,CLR,,0.00,WeatherDisplay:10.37,2013-05-27 13:23:00,
2013-05-27 09:28:00,64.6,37.7,30.22,SW,225,2.0,4.6,37,0.00,CLR,,0.00,WeatherDisplay:10.37,2013-05-27 13:28:00,
2013-05-27 09:33:00,65.3,39.0,30.22,SSW,202,3.0,3.5,38,0.00,CLR,,0.00,WeatherDisplay:10.37,2013-05-27 13:33:00,
2013-05-27 09:38:00,66.9,37.6,30.22,NW,315,4.6,5.8,34,0.00,CLR,,0.00,WeatherDisplay:10.37,2013-05-27 13:38:00,
2013-05-27 09:43:00,66.2,38.4,30.22,North,360,4.6,5.8,36,0.00,CLR,,0.00,WeatherDisplay:10.37,2013-05-27 13:43:00,
2013-05-27 09:48:00,66.2,39.1,30.22,WNW,292,3.6,4.7,37,0.00,CLR,,0.00,WeatherDisplay:10.37,2013-05-27 13:48:00,
2013-05-27 09:53:00,66.4,37.2,30.22,South,180,2.9,3.5,34,0.00,CLR,,0.00,WeatherDisplay:10.37,2013-05-27 13:53:00,
2013-05-27 09:58:00,67.8,37.6,30.22,North,360,5.8,8.1,33,0.00,CLR,,0.00,WeatherDisplay:10.37,2013-05-27 13:58:00,
2013-05-27 10:03:00,66.6,38.8,30.21,West,270,5.4,5.8,36,0.00,CLR,,0.00,WeatherDisplay:10.37,2013-05-27 14:03:00,
2013-05-27 10:08:00,67.6,36.7,30.21,ESE,112,2.0,3.5,32,0.00,CLR,,0.00,WeatherDisplay:10.37,2013-05-27 14:08:00,
2013-05-27 10:13:00,68.4,38.2,30.21,SE,135,2.7,2.7,33,0.00,CLR,,0.00,WeatherDisplay:10.37,2013-05-27 14:13:00,
2013-05-27 10:18:00,69.6,36.8,30.21,ENE,68,2.0,2.3,30,0.00,CLR,,0.00,WeatherDisplay:10.37,2013-05-27 14:18:00,
2013-05-27 10:23:00,69.4,37.4,30.21,NNE,22,3.8,6.9,31,0.00,CLR,,0.00,WeatherDisplay:10.37,2013-05-27 14:23:00,
2013-05-27 10:28:00,70.3,38.2,30.21,NW,315,3.3,7.8,31,0.00,CLR,,0.00,WeatherDisplay:10.37,2013-05-27 14:28:00,
2013-05-27 10:33:00,68.4,36.6,30.21,NNE,22,3.9,5.8,31,0.00,CLR,,0.00,WeatherDisplay:10.37,2013-05-27 14:33:00,
2013-05-27 10:38:00,67.3,36.4,30.20,NNW,338,6.2,9.2,32,0.00,CLR,,0.00,WeatherDisplay:10.37,2013-05-27 14:38:00,
2013-05-27 10:43:00,68.9,35.3,30.20,ENE,68,3.8,5.8,29,0.00,CLR,,0.00,WeatherDisplay:10.37,2013-05-27 14:43:00,
2013-05-27 10:48:00,68.5,35.0,30.21,North,360,7.5,10.4,29,0.00,CLR,,0.00,WeatherDisplay:10.37,2013-05-27 14:48:00,
2013-05-27 10:53:00,69.1,35.5,30.21,West,270,5.4,8.1,29,0.00,CLR,,0.00,WeatherDisplay:10.37,2013-05-27 14:53:00,
2013-05-27 10:58:00,68.7,35.1,30.21,West,270,12.4,12.7,29,0.00,CLR,,0.00,WeatherDisplay:10.37,2013-05-27 14:58:00,
2013-05-27 11:03:00,67.3,33.1,30.20,NW,315,8.9,11.5,28,0.00,CLR,,0.00,WeatherDisplay:10.37,2013-05-27 15:03:00,
2013-05-27 11:08:00,66.0,34.5,30.20,NNE,22,7.7,10.4,31,0.00,CLR,,0.00,WeatherDisplay:10.37,2013-05-27 15:08:00,
2013-05-27 11:13:00,67.5,34.1,30.20,South,180,3.6,4.6,29,0.00,CLR,,0.00,WeatherDisplay:10.37,2013-05-27 15:13:00,
2013-05-27 11:18:00,68.0,33.7,30.20,NNE,22,3.5,5.8,28,0.00,CLR,,0.00,WeatherDisplay:10.37,2013-05-27 15:18:00,
2013-05-27 11:23:00,68.9,34.4,30.20,SSE,158,4.8,5.8,28,0.00,CLR,,0.00,WeatherDisplay:10.37,2013-05-27 15:23:00,
2013-05-27 11:28:00,68.0,33.7,30.20,West,270,7.0,11.5,28,0.00,CLR,,0.00,WeatherDisplay:10.37,2013-05-27 15:28:00,
2013-05-27 11:33:00,68.5,34.1,30.20,SSW,202,3.6,4.2,28,0.00,CLR,,0.00,WeatherDisplay:10.37,2013-05-27 15:33:00,
2013-05-27 11:38:00,70.0,35.4,30.19,WNW,292,5.6,6.9,28,0.00,CLR,,0.00,WeatherDisplay:10.37,2013-05-27 15:38:00,
2013-05-27 11:43:00,69.8,34.3,30.19,WNW,292,6.8,7.3,27,0.00,CLR,,0.00,WeatherDisplay:10.37,2013-05-27 15:43:00,
2013-05-27 11:48:00,68.9,34.4,30.19,NW,315,3.9,8.3,28,0.00,CLR,,0.00,WeatherDisplay:10.37,2013-05-27 15:48:00,
2013-05-27 11:53:00,70.3,35.6,30.19,WNW,292,4.4,4.7,28,0.00,CLR,,0.00,WeatherDisplay:10.37,2013-05-27 15:53:00,
2013-05-27 11:58:00,71.6,35.8,30.19,NE,45,1.9,4.6,27,0.00,CLR,,0.00,WeatherDisplay:10.37,2013-05-27 15:58:00,
2013-05-27 12:03:00,71.8,33.0,30.18,NNE,22,2.7,3.5,24,0.00,CLR,,0.00,WeatherDisplay:10.37,2013-05-27 16:03:00,
2013-05-27 12:08:00,72.3,33.5,30.18,NE,45,3.1,4.6,24,0.00,CLR,,0.00,WeatherDisplay:10.37,2013-05-27 16:08:00,
2013-05-27 12:13:00,71.4,34.7,30.17,West,270,4.6,5.8,26,0.00,CLR,,0.00,WeatherDisplay:10.37,2013-05-27 16:13:00,
2013-05-27 12:18:00,71.8,34.1,30.17,NE,45,2.7,2.7,25,0.00,CLR,,0.00,WeatherDisplay:10.37,2013-05-27 16:18:00,
2013-05-27 12:23:00,71.8,34.1,30.17,NE,45,2.7,2.7,25,0.00,CLR,,0.00,WeatherDisplay:10.37,2013-05-27 16:23:00,
2013-05-27 12:28:00,71.8,34.1,30.17,WSW,248,3.4,5.3,25,0.00,CLR,,0.00,WeatherDisplay:10.37,2013-05-27 16:28:00,
2013-05-27 12:33:00,73.0,35.1,30.17,ENE,68,4.2,5.8,25,0.00,CLR,,0.00,WeatherDisplay:10.37,2013-05-27 16:33:00,
2013-05-27 12:38:00,72.0,33.2,30.17,NE,45,10.5,10.5,24,0.00,CLR,,0.00,WeatherDisplay:10.37,2013-05-27 16:38:00,
2013-05-27 12:43:00,72.3,33.5,30.17,SSW,202,4.1,4.6,24,0.00,CLR,,0.00,WeatherDisplay:10.37,2013-05-27 16:43:00,
2013-05-27 12:48:00,74.7,35.5,30.16,NNW,338,3.6,4.7,24,0.00,CLR,,0.00,WeatherDisplay:10.37,2013-05-27 16:48:00,
2013-05-27 12:54:00,72.5,33.6,30.16,South,180,4.7,8.1,24,0.00,CLR,,0.00,WeatherDisplay:10.37,2013-05-27 16:54:00,
2013-05-27 12:59:00,73.2,33.2,30.16,NE,45,2.4,4.6,23,0.00,CLR,,0.00,WeatherDisplay:10.37,2013-05-27 16:59:00,
2013-05-27 13:04:00,76.3,33.5,30.16,NNW,338,7.3,9.2,21,0.00,CLR,,0.00,WeatherDisplay:10.37,2013-05-27 17:04:00,
2013-05-27 13:09:00,75.4,35.0,30.16,NE,45,7.4,8.1,23,0.00,CLR,,0.00,WeatherDisplay:10.37,2013-05-27 17:09:00,
2013-05-27 13:14:00,73.8,33.7,30.15,South,180,2.5,4.6,23,0.00,CLR,,0.00,WeatherDisplay:10.37,2013-05-27 17:14:00,
2013-05-27 13:19:00,73.0,34.1,30.15,SSW,202,3.2,5.8,24,0.00,CLR,,0.00,WeatherDisplay:10.37,2013-05-27 17:19:00,
2013-05-27 13:24:00,74.3,34.1,30.15,SSE,158,4.6,5.8,23,0.00,CLR,,0.00,WeatherDisplay:10.37,2013-05-27 17:24:00,
2013-05-27 13:29:00,73.9,33.7,30.16,WSW,248,5.8,6.9,23,0.00,CLR,,0.00,WeatherDisplay:10.37,2013-05-27 17:29:00,
2013-05-27 13:34:00,74.1,35.0,30.16,NNE,22,3.6,4.6,24,0.00,CLR,,0.00,WeatherDisplay:10.37,2013-05-27 17:34:00,
2013-05-27 13:39:00,74.1,33.9,30.16,West,270,5.9,10.4,23,0.00,CLR,,0.00,WeatherDisplay:10.37,2013-05-27 17:39:00,
2013-05-27 13:44:00,74.8,33.4,30.16,WNW,292,7.2,8.1,22,0.00,CLR,,0.00,WeatherDisplay:10.37,2013-05-27 17:44:00,
2013-05-27 13:49:00,75.4,37.1,30.15,NNW,338,4.7,4.7,25,0.00,CLR,,0.00,WeatherDisplay:10.37,2013-05-27 17:49:00,
2013-05-27 13:54:00,75.4,32.7,30.15,SSE,158,4.1,4.6,21,0.00,CLR,,0.00,WeatherDisplay:10.37,2013-05-27 17:54:00,
2013-05-27 13:59:00,76.6,32.5,30.15,South,180,2.3,3.5,20,0.00,CLR,,0.00,WeatherDisplay:10.37,2013-05-27 17:59:00,
2013-05-27 14:04:00,76.6,34.9,30.15,WNW,292,2.7,5.8,22,0.00,CLR,,0.00,WeatherDisplay:10.37,2013-05-27 18:04:00,
2013-05-27 14:09:00,74.7,34.4,30.15,SW,225,6.3,8.1,23,0.00,CLR,,0.00,WeatherDisplay:10.37,2013-05-27 18:09:00,
2013-05-27 14:14:00,77.0,31.6,30.14,NNE,22,2.6,3.5,19,0.00,CLR,,0.00,WeatherDisplay:10.37,2013-05-27 18:14:00,
2013-05-27 14:19:00,77.2,33.0,30.14,NNE,22,5.0,5.8,20,0.00,CLR,,0.00,WeatherDisplay:10.37,2013-05-27 18:19:00,
2013-05-27 14:24:00,75.4,32.7,30.14,West,270,6.1,7.3,21,0.00,CLR,,0.00,WeatherDisplay:10.37,2013-05-27 18:24:00,
2013-05-27 14:29:00,75.0,35.7,30.14,North,360,3.2,4.6,24,0.00,CLR,,0.00,WeatherDisplay:10.37,2013-05-27 18:29:00,
2013-05-27 14:34:00,76.6,33.7,30.14,ESE,112,3.8,5.8,21,0.00,CLR,,0.00,WeatherDisplay:10.37,2013-05-27 18:34:00,
2013-05-27 14:39:00,77.4,35.6,30.13,SW,225,2.4,3.5,22,0.00,CLR,,0.00,WeatherDisplay:10.37,2013-05-27 18:39:00,
2013-05-27 14:44:00,75.7,33.0,30.13,North,360,3.2,4.6,21,0.00,CLR,,0.00,WeatherDisplay:10.37,2013-05-27 18:44:00,
2013-05-27 14:49:00,78.1,33.7,30.13,NE,45,1.5,2.3,20,0.00,CLR,,0.00,WeatherDisplay:10.37,2013-05-27 18:49:00,
2013-05-27 14:54:00,76.5,32.4,30.13,North,360,6.0,6.9,20,0.00,CLR,,0.00,WeatherDisplay:10.37,2013-05-27 18:54:00,
2013-05-27 14:59:00,78.8,34.3,30.12,ESE,112,3.6,4.6,20,0.00,CLR,,0.00,WeatherDisplay:10.37,2013-05-27 18:59:00,
2013-05-27 15:04:00,77.4,34.4,30.12,North,360,5.3,5.8,21,0.00,CLR,,0.00,WeatherDisplay:10.37,2013-05-27 19:04:00,
2013-05-27 15:09:00,75.7,33.0,30.12,ENE,68,2.8,5.8,21,0.00,CLR,,0.00,WeatherDisplay:10.37,2013-05-27 19:09:00,
2013-05-27 15:14:00,76.3,33.5,30.13,WNW,292,2.7,4.6,21,0.00,CLR,,0.00,WeatherDisplay:10.37,2013-05-27 19:14:00,
2013-05-27 15:19:00,76.5,32.4,30.13,East,90,3.7,4.6,20,0.00,CLR,,0.00,WeatherDisplay:10.37,2013-05-27 19:19:00,
2013-05-27 15:24:00,77.2,34.2,30.12,NW,315,4.9,8.1,21,0.00,CLR,,0.00,WeatherDisplay:10.37,2013-05-27 19:24:00,
2013-05-27 15:29:00,76.6,33.7,30.12,SW,225,5.1,8.1,21,0.00,CLR,,0.00,WeatherDisplay:10.37,2013-05-27 19:29:00,
2013-05-27 15:34:00,77.5,33.2,30.12,SSW,202,4.0,6.9,20,0.00,CLR,,0.00,WeatherDisplay:10.37,2013-05-27 19:34:00,
2013-05-27 15:39:00,79.0,35.7,30.11,NNW,338,5.1,6.9,21,0.00,CLR,,0.00,WeatherDisplay:10.37,2013-05-27 19:39:00,
2013-05-27 15:44:00,78.4,35.2,30.11,WNW,292,4.8,5.8,21,0.00,CLR,,0.00,WeatherDisplay:10.37,2013-05-27 19:44:00,
2013-05-27 15:49:00,77.9,36.0,30.12,West,270,3.4,4.7,22,0.00,CLR,,0.00,WeatherDisplay:10.37,2013-05-27 19:49:00,
2013-05-27 15:54:00,77.7,36.9,30.12,NNW,338,3.3,5.8,23,0.00,CLR,,0.00,WeatherDisplay:10.37,2013-05-27 19:54:00,
2013-05-27 15:59:00,77.7,34.6,30.12,NNE,22,3.9,6.9,21,0.00,CLR,,0.00,WeatherDisplay:10.37,2013-05-27 19:59:00,
2013-05-27 16:04:00,77.9,36.0,30.11,NNW,338,2.3,3.5,22,0.00,CLR,,0.00,WeatherDisplay:10.37,2013-05-27 20:04:00,
2013-05-27 16:09:00,81.5,35.2,30.11,WNW,292,0.8,2.7,19,0.00,CLR,,0.00,WeatherDisplay:10.37,2013-05-27 20:09:00,
2013-05-27 16:14:00,79.0,34.5,30.11,NNE,22,7.6,7.8,20,0.00,CLR,,0.00,WeatherDisplay:10.37,2013-05-27 20:14:00,
2013-05-27 16:19:00,76.1,35.6,30.11,NNE,22,2.9,5.8,23,0.00,CLR,,0.00,WeatherDisplay:10.37,2013-05-27 20:19:00,
2013-05-27 16:24:00,77.9,34.8,30.11,NW,315,3.5,8.1,21,0.00,CLR,,0.00,WeatherDisplay:10.37,2013-05-27 20:24:00,
2013-05-27 16:29:00,77.4,36.7,30.11,West,270,2.5,3.7,23,0.00,CLR,,0.00,WeatherDisplay:10.37,2013-05-27 20:29:00,
2013-05-27 16:34:00,77.4,35.6,30.11,NE,45,4.1,5.8,22,0.00,CLR,,0.00,WeatherDisplay:10.37,2013-05-27 20:34:00,
2013-05-27 16:39:00,78.3,36.3,30.11,West,270,2.5,3.5,22,0.00,CLR,,0.00,WeatherDisplay:10.37,2013-05-27 20:39:00,
2013-05-27 16:44:00,78.4,35.2,30.11,East,90,4.9,9.2,21,0.00,CLR,,0.00,WeatherDisplay:10.37,2013-05-27 20:44:00,
2013-05-27 16:49:00,78.6,36.6,30.11,North,360,2.7,3.5,22,0.00,CLR,,0.00,WeatherDisplay:10.37,2013-05-27 20:49:00,
2013-05-27 16:54:00,76.8,36.2,30.11,West,270,4.7,4.7,23,0.00,CLR,,0.00,WeatherDisplay:10.37,2013-05-27 20:54:00,
2013-05-27 16:59:00,77.5,34.5,30.11,SSE,158,4.1,9.2,21,0.00,CLR,,0.00,WeatherDisplay:10.37,2013-05-27 20:59:00,
2013-05-27 17:04:00,77.5,34.5,30.10,West,270,5.3,5.8,21,0.00,CLR,,0.00,WeatherDisplay:10.37,2013-05-27 21:04:00,
2013-05-27 17:09:00,76.5,35.9,30.10,ENE,68,5.8,10.4,23,0.00,CLR,,0.00,WeatherDisplay:10.37,2013-05-27 21:09:00,
2013-05-27 17:14:00,77.2,35.4,30.11,WNW,292,4.3,5.8,22,0.00,CLR,,0.00,WeatherDisplay:10.37,2013-05-27 21:14:00,
2013-05-27 17:19:00,76.6,34.9,30.11,SSW,202,1.6,2.3,22,0.00,CLR,,0.00,WeatherDisplay:10.37,2013-05-27 21:19:00,
2013-05-27 17:24:00,77.2,34.2,30.11,WNW,292,4.0,5.8,21,0.00,CLR,,0.00,WeatherDisplay:10.37,2013-05-27 21:24:00,
2013-05-27 17:29:00,79.0,36.9,30.11,SSE,158,2.5,3.5,22,0.00,CLR,,0.00,WeatherDisplay:10.37,2013-05-27 21:29:00,
2013-05-27 17:34:00,77.7,34.6,30.11,North,360,2.9,3.7,21,0.00,CLR,,0.00,WeatherDisplay:10.37,2013-05-27 21:34:00,
2013-05-27 17:39:00,78.3,33.9,30.11,ESE,112,3.2,6.3,20,0.00,CLR,,0.00,WeatherDisplay:10.37,2013-05-27 21:39:00,
2013-05-27 17:44:00,77.7,34.6,30.11,WNW,292,3.5,9.2,21,0.00,CLR,,0.00,WeatherDisplay:10.37,2013-05-27 21:44:00,
2013-05-27 17:49:00,76.6,36.0,30.11,SW,225,1.8,2.3,23,0.00,CLR,,0.00,WeatherDisplay:10.37,2013-05-27 21:49:00,
2013-05-27 17:54:00,79.0,34.5,30.11,West,270,2.0,3.5,20,0.00,CLR,,0.00,WeatherDisplay:10.37,2013-05-27 21:54:00,
2013-05-27 18:00:00,77.9,36.0,30.11,NNE,22,1.0,2.3,22,0.00,CLR,,0.00,WeatherDisplay:10.37,2013-05-27 22:00:00,
2013-05-27 18:05:00,77.5,35.6,30.11,West,270,2.7,4.6,22,0.00,CLR,,0.00,WeatherDisplay:10.37,2013-05-27 22:05:00,
2013-05-27 18:10:00,74.7,33.3,30.11,North,360,4.9,6.9,22,0.00,CLR,,0.00,WeatherDisplay:10.37,2013-05-27 22:10:00,
2013-05-27 18:15:00,74.5,34.2,30.11,NNE,22,2.3,3.5,23,0.00,CLR,,0.00,WeatherDisplay:10.37,2013-05-27 22:15:00,
2013-05-27 18:20:00,74.3,34.1,30.11,WNW,292,2.7,4.7,23,0.00,CLR,,0.00,WeatherDisplay:10.37,2013-05-27 22:20:00,
2013-05-27 18:25:00,75.6,34.1,30.10,East,90,4.7,5.8,22,0.00,CLR,,0.00,WeatherDisplay:10.37,2013-05-27 22:25:00,
2013-05-27 18:30:00,75.7,35.3,30.10,ENE,68,0.6,2.7,23,0.00,CLR,,0.00,WeatherDisplay:10.37,2013-05-27 22:30:00,
2013-05-27 18:35:00,73.8,34.7,30.10,SSE,158,3.3,4.6,24,0.00,CLR,,0.00,WeatherDisplay:10.37,2013-05-27 22:35:00,
2013-05-27 18:40:00,70.9,32.3,30.11,ESE,112,3.6,8.1,24,0.00,CLR,,0.00,WeatherDisplay:10.37,2013-05-27 22:40:00,
2013-05-27 18:45:00,70.5,33.0,30.11,ENE,68,2.6,4.6,25,0.00,CLR,,0.00,WeatherDisplay:10.37,2013-05-27 22:45:00,
2013-05-27 18:50:00,70.5,35.8,30.11,South,180,1.7,2.3,28,0.00,CLR,,0.00,WeatherDisplay:10.37,2013-05-27 22:50:00,
2013-05-27 18:55:00,70.7,36.9,30.11,NW,315,2.8,3.7,29,0.00,CLR,,0.00,WeatherDisplay:10.37,2013-05-27 22:55:00,
2013-05-27 19:00:00,72.3,36.4,30.11,West,270,3.5,4.6,27,0.00,CLR,,0.00,WeatherDisplay:10.37,2013-05-27 23:00:00,
2013-05-27 19:05:00,72.1,36.3,30.11,West,270,2.0,2.3,27,0.00,CLR,,0.00,WeatherDisplay:10.37,2013-05-27 23:05:00,
2013-05-27 19:10:00,70.5,38.4,30.11,WSW,248,0.8,2.3,31,0.00,CLR,,0.00,WeatherDisplay:10.37,2013-05-27 23:10:00,
2013-05-27 19:15:00,69.1,36.3,30.11,SW,225,2.3,3.5,30,0.00,CLR,,0.00,WeatherDisplay:10.37,2013-05-27 23:15:00,
2013-05-27 19:20:00,67.3,36.4,30.11,SW,225,0.8,3.5,32,0.00,CLR,,0.00,WeatherDisplay:10.37,2013-05-27 23:20:00,
2013-05-27 19:25:00,66.6,37.3,30.11,West,270,2.4,2.7,34,0.00,CLR,,0.00,WeatherDisplay:10.37,2013-05-27 23:25:00,
2013-05-27 19:30:00,64.9,37.3,30.11,West,270,1.8,3.5,36,0.00,CLR,,0.00,WeatherDisplay:10.37,2013-05-27 23:30:00,
2013-05-27 19:35:00,63.9,37.8,30.12,West,270,2.8,3.5,38,0.00,CLR,,0.00,WeatherDisplay:10.37,2013-05-27 23:35:00,
2013-05-27 19:40:00,63.5,37.4,30.12,West,270,2.2,2.3,38,0.00,CLR,,0.00,WeatherDisplay:10.37,2013-05-27 23:40:00,
2013-05-27 19:45:00,62.2,36.9,30.12,West,270,3.4,4.6,39,0.00,CLR,,0.00,WeatherDisplay:10.37,2013-05-27 23:45:00,
2013-05-27 19:50:00,61.9,37.3,30.12,West,270,3.3,3.5,40,0.00,CLR,,0.00,WeatherDisplay:10.37,2013-05-27 23:50:00,
2013-05-27 19:55:00,61.3,37.4,30.12,West,270,2.6,3.2,41,0.00,CLR,,0.00,WeatherDisplay:10.37,2013-05-27 23:55:00,
2013-05-27 20:00:00,61.0,37.1,30.13,West,270,2.6,3.5,41,0.00,CLR,,0.00,WeatherDisplay:10.37,2013-05-28 00:00:00,
2013-05-27 20:05:00,60.4,37.8,30.13,West,270,2.7,4.6,43,0.00,CLR,,0.00,WeatherDisplay:10.37,2013-05-28 00:05:00,
2013-05-27 20:10:00,59.9,37.3,30.13,West,270,3.1,3.5,43,0.00,CLR,,0.00,WeatherDisplay:10.37,2013-05-28 00:10:00,
2013-05-27 20:15:00,59.4,37.5,30.12,WNW,292,3.9,4.2,44,0.00,CLR,,0.00,WeatherDisplay:10.37,2013-05-28 00:15:00,
2013-05-27 20:20:00,58.8,37.5,30.12,West,270,3.6,3.6,45,0.00,CLR,,0.00,WeatherDisplay:10.37,2013-05-28 00:20:00,
2013-05-27 20:25:00,58.1,38.0,30.13,WNW,292,3.7,4.6,47,0.00,CLR,,0.00,WeatherDisplay:10.37,2013-05-28 00:25:00,
2013-05-27 20:30:00,57.6,37.5,30.13,WSW,248,2.0,2.3,47,0.00,CLR,,0.00,WeatherDisplay:10.37,2013-05-28 00:30:00,
2013-05-27 20:35:00,57.2,37.7,30.13,West,270,3.0,4.6,48,0.00,CLR,,0.00,WeatherDisplay:10.37,2013-05-28 00:35:00,
2013-05-27 20:40:00,56.7,37.7,30.13,West,270,1.8,2.7,49,0.00,CLR,,0.00,WeatherDisplay:10.37,2013-05-28 00:40:00,
2013-05-27 20:45:00,56.1,37.2,30.13,WSW,248,1.5,2.3,49,0.00,CLR,,0.00,WeatherDisplay:10.37,2013-05-28 00:45:00,
2013-05-27 20:50:00,55.6,37.2,30.14,West,270,2.0,2.3,50,0.00,CLR,,0.00,WeatherDisplay:10.37,2013-05-28 00:50:00,
2013-05-27 20:55:00,55.4,37.1,30.14,WSW,248,1.5,1.5,50,0.00,CLR,,0.00,WeatherDisplay:10.37,2013-05-28 00:55:00,
2013-05-27 21:00:00,55.0,37.7,30.14,NW,315,2.0,2.3,52,0.00,CLR,,0.00,WeatherDisplay:10.37,2013-05-28 01:00:00,
2013-05-27 21:05:00,54.7,36.4,30.14,WNW,292,2.1,2.7,50,0.00,CLR,,0.00,WeatherDisplay:10.37,2013-05-28 01:05:00,
2013-05-27 21:10:00,54.3,36.5,30.14,West,270,2.0,2.3,51,0.00,CLR,,0.00,WeatherDisplay:10.37,2013-05-28 01:10:00,
2013-05-27 21:15:00,54.1,38.3,30.14,WNW,292,1.9,2.7,55,0.00,CLR,,0.00,WeatherDisplay:10.37,2013-05-28 01:15:00,
2013-05-27 21:20:00,53.8,39.4,30.14,NW,315,1.1,3.2,58,0.00,CLR,,0.00,WeatherDisplay:10.37,2013-05-28 01:20:00,
2013-05-27 21:25:00,53.2,39.2,30.14,WNW,292,2.5,3.5,59,0.00,CLR,,0.00,WeatherDisplay:10.37,2013-05-28 01:25:00,
2013-05-27 21:30:00,53.2,38.8,30.14,SW,225,2.5,3.5,58,0.00,CLR,,0.00,WeatherDisplay:10.37,2013-05-28 01:30:00,
2013-05-27 21:35:00,53.2,38.4,30.14,NNW,338,0.7,2.3,57,0.00,CLR,,0.00,WeatherDisplay:10.37,2013-05-28 01:35:00,
2013-05-27 21:40:00,52.2,40.0,30.15,WNW,292,3.7,4.6,63,0.00,CLR,,0.00,WeatherDisplay:10.37,2013-05-28 01:40:00,
2013-05-27 21:45:00,51.8,39.2,30.15,WNW,292,3.4,3.7,62,0.00,CLR,,0.00,WeatherDisplay:10.37,2013-05-28 01:45:00,
2013-05-27 21:50:00,51.4,39.2,30.16,West,270,2.4,3.5,63,0.00,CLR,,0.00,WeatherDisplay:10.37,2013-05-28 01:50:00,
2013-05-27 21:55:00,51.1,38.9,30.16,West,270,2.3,2.3,63,0.00,CLR,,0.00,WeatherDisplay:10.37,2013-05-28 01:55:00,
2013-05-27 22:00:00,51.1,38.9,30.16,North,360,1.6,1.7,63,0.00,CLR,,0.00,WeatherDisplay:10.37,2013-05-28 02:00:00,
2013-05-27 22:05:00,50.4,39.1,30.16,West,270,2.5,2.5,65,0.00,CLR,,0.00,WeatherDisplay:10.37,2013-05-28 02:05:00,
2013-05-27 22:10:00,50.2,39.3,30.16,West,270,3.1,3.5,66,0.00,CLR,,0.00,WeatherDisplay:10.37,2013-05-28 02:10:00,
2013-05-27 22:15:00,50.2,39.3,30.16,WNW,292,2.4,2.7,66,0.00,CLR,,0.00,WeatherDisplay:10.37,2013-05-28 02:15:00,
2013-05-27 22:20:00,49.6,39.1,30.16,WNW,292,2.8,2.8,67,0.00,CLR,,0.00,WeatherDisplay:10.37,2013-05-28 02:20:00,
2013-05-27 22:25:00,49.6,39.1,30.16,West,270,3.3,3.5,67,0.00,CLR,,0.00,WeatherDisplay:10.37,2013-05-28 02:25:00,
2013-05-27 22:30:00,49.8,39.3,30.16,WNW,292,1.8,3.5,67,0.00,CLR,,0.00,WeatherDisplay:10.37,2013-05-28 02:30:00,
2013-05-27 22:35:00,49.6,39.5,30.17,NNE,22,2.2,2.7,68,0.00,CLR,,0.00,WeatherDisplay:10.37,2013-05-28 02:35:00,
2013-05-27 22:40:00,49.1,39.0,30.17,NNW,338,1.5,2.3,68,0.00,CLR,,0.00,WeatherDisplay:10.37,2013-05-28 02:40:00,
2013-05-27 22:45:00,48.7,39.4,30.17,WNW,292,2.1,2.3,70,0.00,CLR,,0.00,WeatherDisplay:10.37,2013-05-28 02:45:00,
2013-05-27 22:51:00,48.4,39.8,30.17,WNW,292,1.5,2.3,72,0.00,CLR,,0.00,WeatherDisplay:10.37,2013-05-28 02:51:00,
2013-05-27 22:56:00,48.4,39.8,30.17,WNW,292,0.0,0.0,72,0.00,CLR,,0.00,WeatherDisplay:10.37,2013-05-28 02:56:00,
2013-05-27 23:01:00,48.4,39.8,30.18,ENE,68,0.7,1.2,72,0.00,CLR,,0.00,WeatherDisplay:10.37,2013-05-28 03:01:00,
2013-05-27 23:06:00,48.7,39.4,30.18,South,180,3.1,4.6,70,0.00,CLR,,0.00,WeatherDisplay:10.37,2013-05-28 03:06:00,
2013-05-27 23:11:00,49.1,38.6,30.18,SW,225,3.0,4.6,67,0.00,CLR,,0.00,WeatherDisplay:10.37,2013-05-28 03:11:00,
2013-05-27 23:16:00,48.9,39.5,30.19,NNW,338,0.0,0.0,70,0.00,CLR,,0.00,WeatherDisplay:10.37,2013-05-28 03:16:00,
2013-05-27 23:21:00,48.4,40.1,30.19,SW,225,0.0,0.0,73,0.00,CLR,,0.00,WeatherDisplay:10.37,2013-05-28 03:21:00,
2013-05-27 23:26:00,48.6,40.0,30.18,SSW,202,0.1,1.2,72,0.00,CLR,,0.00,WeatherDisplay:10.37,2013-05-28 03:26:00,
2013-05-27 23:31:00,48.0,39.8,30.18,NW,315,0.0,0.0,73,0.00,CLR,,0.00,WeatherDisplay:10.37,2013-05-28 03:31:00,
2013-05-27 23:36:00,47.8,39.6,30.19,South,180,1.7,1.7,73,0.00,CLR,,0.00,WeatherDisplay:10.37,2013-05-28 03:36:00,
2013-05-27 23:41:00,47.8,39.2,30.19,South,180,2.1,2.7,72,0.00,CLR,,0.00,WeatherDisplay:10.37,2013-05-28 03:41:00,
2013-05-27 23:46:00,47.8,39.2,30.19,West,270,3.2,3.5,72,0.00,CLR,,0.00,WeatherDisplay:10.37,2013-05-28 03:46:00,
2013-05-27 23:51:00,47.7,39.8,30.19,West,270,2.3,3.2,74,0.00,CLR,,0.00,WeatherDisplay:10.37,2013-05-28 03:51:00,
2013-05-27 23:56:00,47.3,39.1,30.19,NNW,338,3.5,4.6,73,0.00,CLR,,0.00,WeatherDisplay:10.37,2013-05-28 03:56:00,